Regional Weather Roundup
Issued by NWS

Home | Current Version | Previous Version | Graphics & Text | Print | Product List | Glossary On
Versions: 1 2 3 4 5 6 7 8 9 10 11 12 13 14 15 16 17 18 19 20 21 22 23 24 25 26 27 28 29 30 31 32 33 34 35 36 37 38 39 40 41 42 43 44 45 46 47 48 49 50
000
ASUS43 KTOP 270808
RWRKS

WEATHER ROUNDUP FOR KANSAS
NATIONAL WEATHER SERVICE GOODLAND KS
300 AM CDT WED AUG 27 2014

NOTE:  "FAIR" INDICATES FEW OR NO CLOUDS BELOW 12,000 FEET WITH NO
SIGNIFICANT WEATHER AND/OR OBSTRUCTIONS TO VISIBILITY.

KSZ001>006-013>018-027>032-041>047-270900-
NORTHWEST KANSAS

CITY           SKY/WX    TMP DP  RH WIND       PRES   REMARKS
GOODLAND       CLOUDY    65  64  97 S8        30.14F
HAYS           CLOUDY    72  64  78 E5        30.10F
HILL CITY      CLOUDY    72  66  81 N10       30.11F
RUSSELL        CLOUDY    75  67  76 SW8       30.09R
$$

KSZ061>065-074>080-084>089-270900-
SOUTHWEST KANSAS

CITY           SKY/WX    TMP DP  RH WIND       PRES   REMARKS
DODGE CITY     LGT RAIN  68  62  81 S15       30.13F
ELKHART          N/A    N/A N/A N/A MISG        N/A
GARDEN CITY    CLOUDY    68  66  93 SW6       30.15F
GREAT BEND     CLOUDY    73  66  78 SW8       30.11R
LIBERAL        CLOUDY    70  63  78 NW3       30.18F
PRATT          CLOUDY    73  59  60 W10       30.11F
$$

KSZ066>073-081>083-090>101-270900-
SOUTHEAST KANSAS

CITY           SKY/WX    TMP DP  RH WIND       PRES   REMARKS
CHANUTE        PTCLDY    76  66  71 SE7       30.07S
COFFEYVILLE    CLEAR     74  67  78 CALM      30.06R
HUTCHINSON     MOCLDY    73  68  84 CALM      30.08S
MEDICINE LODGE   N/A     77  66  68 SW7       30.07F
NEWTON         MOCLDY    75  63  64 S6        30.12S
PARSONS        PTCLDY    72  67  84 CALM      30.08S
WICHITA INTL   MOCLDY    76  68  76 S6        30.07S
WICHITA JABRA  PTCLDY    80  66  62 SW10      30.08S
WICHITA MCCONL PTCLDY    78  68  71 S9        30.08S
WINFIELD       PTCLDY    76  67  73 S3        30.09S
$$

KSZ007>012-019>026-033>040-048>060-102>105-270900-
NORTHEAST KANSAS

CITY           SKY/WX    TMP DP  RH WIND       PRES   REMARKS
CONCORDIA      TSTM      69  69 100 SE6       30.08S
EMPORIA        PTCLDY    75  67  76 S7        30.07S
LAWRENCE       MOCLDY    80  73  79 CALM      30.07F
MANHATTAN      PTCLDY    74  70  87 N3        30.06S
MARYSVILLE     CLEAR     72  70  94 CALM      30.07F
OLATHE IND     PTCLDY    77  73  87 E8        30.09F
OLATHE EXE     PTCLDY    75  73  93 E6        30.08F
SALINA         CLOUDY    79  67  66 E6        30.06F
TOPEKA BILLARD CLOUDY    79  75  87 E3        30.06F
TOPEKA FORBES  CLOUDY    76  74  93 CALM      30.07F
$$



USA.gov is the U.S. government's official web portal to all federal, state and local government web resources and services.